FREGAT DEB, 45851

Orbit data source: Space-Track

FREGAT DEB, 45851 is space debris in LEO originally from a launch on Mon, 18 Jul 2011 UTC launched from the Tyuratam Missile And Space Complex (TTMTR). Debris objects in space refer to the collection of defunct objects orbiting the Earth. Examples of debris include non-operational satellites, rocket bodies, and fragments generated from explosions, collisions, or faulty payload assembly.

Loading next visibility...
Identifier
45851, 2011-037CM
Orbit
LEO
Country
Flag of CISCIS
Related business
Manufacturer
Lavochkin
Mission
Spacecraft
Bus & Motor
Unknown
Mass
Unknown
Launch date (UTC)
2011-07-18 (15 years ago)
Launch vehicle
Unknown
Launch site
Tyuratam Missile And Space Complex (TTMTR)
Object type
Payload
Rocket body
Debris
Shape & HBR
Unknown shape, 0.1 m
Radar Cross Section
Small (<0.1 m²)

Expand to show TLE details & history
Last TLE update: 18 hours ago

TLE from 18 hours ago
0 FREGAT DEB
1 45851U 11037CM  26126.62954792 -.00005753  00000-0 -10475-1 0  9996
2 45851  51.7072 208.8077 1743790  23.8375 343.4162 10.89394395232920
Epoch: 2026-05-06T15:06Z
TLE epoch observation values (Epoch: 2026-05-06T15:06:32.940Z)
Latitude
-0.00004°
Longitude
117.68313°
Altitude
809.558 km
Speed
8.036 km/s
True Right ascension
13h 55m 13s
True Declination
0° 00' 00"
Sunlit
Object was in full shadow at epoch
Visualization orbit readout
Latitude
Unknown
Longitude
Unknown
Altitude
Unknown
Speed
Unknown
Apparent Right ascension
Unknown
Apparent Declination
Unknown
Sunlit
N/A
Visualization observer readout
Local Sidereal Time
17:09:38
Azimuth
Unknown
Elevation
Unknown
Doppler factor
Unknown
Orbital elements
Apogee altitude
3,716.892 km
Perigee altitude
718.948 km
Semi-major axis
8,596.057 km
Eccentricity
0.17438
Inclination
51.7072°
RAAN
208.8077°
Arg. of periapsis
23.8375°
True anomaly
336.24649°
Mean anomaly
343.4162°
Eccentric anomaly
339.99882°
Mean motion
2.72329 °/min
Orbital period
132.19 mins
BSTAR
-0.010475
Loading maneuver chart data...
Computing Atmospheric mass density...
Loading historical data...
Loading historical data...
Loading historical data...
Loading historical data...
Loading historical data...
Loading historical data...
Loading historical data...

Documentation

Showing up to 5 results
|